Regional Weather Roundup
Issued by NWS

Home | Current Version | Previous Version | Graphics & Text | Print | Product List | Glossary On
Versions: 1 2 3 4 5 6 7 8 9 10 11 12 13 14 15 16 17 18 19 20 21 22 23 24 25 26 27 28 29 30 31 32 33 34 35 36 37 38 39 40 41 42 43 44 45 46 47 48 49 50
000
ASUS43 KMKX 261900
RWRWI

WISCONSIN REGIONAL WEATHER ROUNDUP
NATIONAL WEATHER SERVICE MILWAUKEE/SULLIVAN WI
200 PM CDT WED JUL 26 2017

NOTE: "FAIR" INDICATES FEW OR NO CLOUDS BELOW 12,000 FEET WITH NO
SIGNIFICANT WEATHER AND/OR OBSTRUCTIONS TO VISIBILITY.

WIZ001-002-006>008-014>016-023>028-262000-
NORTHWEST WISCONSIN

CITY           SKY/WX    TMP DP  RH WIND       PRES   REMARKS
SUPERIOR ARPT  NOT AVBL
ASHLAND        SUNNY     81  59  47 W10       29.97S HX  81
HAYWARD        CLOUDY    78  59  51 W6        30.00F
SIREN          MOSUNNY   79  61  53 W5        30.01S HX  80
CUMBERLAND     CLOUDY    73  63  68 NW7       30.01S
RICE LAKE      CLOUDY    76  65  69 NW3       30.02S
CHETEK         CLOUDY    75  70  84 CALM      30.00F
LADYSMITH      CLOUDY    76  66  70 NW6       30.01S
EAU CLAIRE     LGT RAIN  73  71  93 CALM      29.98F
MENOMONIE      CLOUDY    74  71  89 NW7       29.99F
NEW RICHMOND   CLOUDY    76  69  80 N8        30.01S
OSCEOLA        CLOUDY    77  65  67 NW6       30.03F
$$

WIZ003>005-009-010-017-018-262000-
NORTH CENTRAL WISCONSIN

CITY           SKY/WX    TMP DP  RH WIND       PRES   REMARKS
MANITOWISH WTR PTSUNNY   78  64  63 W10       29.99F HX  80
ARBOR VITAE    MOSUNNY   77  68  72 NW6       29.99F
WOODRUFF       MOSUNNY   77  68  72 NW6       29.99F
RHINELANDER    CLOUDY    73  68  84 VRB6      29.99F
EAGLE RIVER    CLOUDY    75  63  66 W9G16     29.98F
LAND O LAKES   MOSUNNY   79  61  54 NW9       29.99F HX  81
PHILLIPS       MOSUNNY   75  67  77 NW6       29.99S
TOMAHAWK         N/A     70  67  91 NW6       29.98F
MEDFORD        CLOUDY    71  68  92 W3        30.00F
MERRILL        NOT AVBL
$$

WIZ029-030-035-036-043>047-262000-
CENTRAL WISCONSIN

CITY           SKY/WX    TMP DP  RH WIND       PRES   REMARKS
WAUSAU         LGT RAIN  73  68  84 SW8       29.98F
MOSINEE        PTSUNNY   73  70  88 SW7       30.02F
MARSHFIELD     MOSUNNY   73  67  81 W8        30.00F
STEVENS POINT  CLOUDY    74  68  81 W7        30.01F
WAUPACA        MOSUNNY   80  71  74 W7        30.00S HX  84
WAUTOMA        PTSUNNY   82  71  69 SW8       29.99F HX  86
WISC RAPIDS    LGT RAIN  76  69  79 W7        30.02S
CAMP DOUGLAS   LGT RAIN  79  70  73 W10       30.02R HX  81
$$

WIZ011>013-019>022-031-037>040-048>050-262000-
NORTHEAST WISCONSIN

CITY           SKY/WX    TMP DP  RH WIND       PRES   REMARKS
ANTIGO         CLOUDY    71  69  96 SW8       30.00S
SHAWANO        PTSUNNY   78  70  77 SW7       29.98R HX  80
OCONTO         MOSUNNY   73  69  87 W8        29.97R
STURGEON BAY     N/A     72  69  90 SW9       29.98S
GREEN BAY      PTSUNNY   76  72  87 VRB7      29.98S
MANITOWOC      NOT AVBL
APPLETON       PTSUNNY   75  66  73 SW9       29.99S
CLINTONVILLE   CLOUDY   N/A N/A N/A SW7       29.99S
OSHKOSH        CLOUDY    77  70  79 SW8       29.99F
$$

WIZ032>034-041-042-053>061-262000-
SOUTHWEST WISCONSIN

CITY           SKY/WX    TMP DP  RH WIND       PRES   REMARKS
LA CROSSE      PTSUNNY   80  71  74 S7        29.99F HX  84
SPARTA         LGT RAIN  76  69  78 SW8       30.04R
VIROQUA        CLOUDY    71  71 100 N5        30.04R
BOSCOBEL       CLOUDY    80  72  76 NW3       30.01R HX  84
PRAIRIE DU CHI CLOUDY    78  69  75 CALM      30.00F HX  80
PLATTEVILLE    CLOUDY    77  75  93 SE3       30.03F
$$

WIZ056-057-062-063-064-067-068-262000-
SOUTH CENTRAL WISCONSIN

CITY           SKY/WX    TMP DP  RH WIND       PRES   REMARKS
REEDSBURG      CLOUDY    78  74  87 SW6       30.00F HX  80
BARABOO/DELLS  CLOUDY    79  68  69 SW5       30.01F HX  82
LONE ROCK      NOT AVBL
MINERAL POINT  CLOUDY    79  75  89 S5        30.04S HX  82
MADISON        CLOUDY    79  72  79 S5        30.00F HX  82
MIDDLETON      CLOUDY    79  73  82 SW6       30.02F HX  82
WATERTOWN      PTSUNNY   77  73  87 W6        30.02S
MONROE         CLOUDY    79  70  73 CALM      30.03F HX  81
JANESVILLE     CLOUDY    82  73  74 SW7       30.02F HX  88
$$

WIZ051-052-058>065-066-070>072-262000-
SOUTHEAST WISCONSIN

CITY           SKY/WX    TMP DP  RH WIND       PRES   REMARKS
MILWAUKEE      CLOUDY    85  72  65 SW12      30.01F HX  91
WAUKESHA       MOSUNNY   81  70  69 SW9       30.03F HX  84
MILWAUKEE/TIMM MOSUNNY   82  66  57 W6        30.02F HX  85
RACINE         CLOUDY    83  73  72 W5        30.03F HX  89
KENOSHA        CLOUDY    82  71  69 SW7       30.03F HX  86
FOND DU LAC    LGT RAIN  76  68  76 SW12      30.01S
SHEBOYGAN      LGT RAIN  76  72  87 SW6       30.01R
WEST BEND      LGT RAIN  77  70  78 W7        30.02S
JUNEAU         CLOUDY    73  70  93 S7        30.02F
$$

LSZ147-162-262000-
LAKE SUPERIOR

STATION/POSITION TIME  TEMP    WIND        PRES    WAVE
                       AIR SEA DIR/SP/G            HT/PER
                 (UTC) (F)     (DEG/KT/KT) (MB)    (FT/S)
W MID LAKE BUOY  1750   56 52  250/  8/ 10 1013.9S   0
DEVILS ISLAND    1800   67     230/ 13/ 15 1014.4F
SAXON HARBOR     1840   74      CALM  /  5 1014.6S
$$

LMZ867-665-643>646-262000-
LAKE MICHIGAN

STATION/POSITION TIME  TEMP    WIND        PRES    WAVE
                       AIR SEA DIR/SP/G            HT/PER
                 (UTC) (F)     (DEG/KT/KT) (MB)    (FT/S)
CHAMBERS ISLAND  1840   70     200/  6/ 13 1013.5F
S GREEN BAY BUOY 1830   71 71  210/ 14/ 17 1014.4F
N MID LAKE BUOY  1750   67 65  180/  8/ 10 1013.2F   4/ 6
NORTHPORT PIER   1840   71     210/  5/ 10 1014.2R
KEWAUNEE LAKESHO 1830   71     160/  6/  8 1014.7F
SHEBOYGAN LAKESH 1800   69     170/ 12/ 13 1015.5F
PORT WASHINGTON  1840   76     170/  8/ 10 1016.6F
ATWATER BUOY     1709   77 68  240/  8/  8 1017.3F
MILWAUKEE LAKESH 1830   82     260/  4/  5   N/A
S MID LAKE BUOY  1750   71 71  180/ 10/ 12 1017.6R   2/ 5
KENOSHA   LAKESH 1800   77     160/  7/  8 1016.6
$$

TC  - TEMPERATURE IN CELSIUS
VSB - VISIBILITY IN STATUTE MILES
WCI - WIND CHILL INDEX
HX  - HEAT INDEX





USA.gov is the U.S. government's official web portal to all federal, state and local government web resources and services.